Weather History for KDNV - January, 2014

Change the Weather History Date:

Sunday, January 12, 2014

  Actual Average (KLAF) Record (KLAF)
Temperature  
Mean Temperature 36 °F 26 °F  
Max Temperature 43 °F 34 °F 64 °F (2005)
Min Temperature 28 °F 19 °F -10 °F (1974)
Degree Days  
Heating Degree Days 30 39  
Month to date heating degree days 464  
Since 1 July heating degree days 2639  
Cooling Degree Days 0 0  
Month to date cooling degree days 0  
Year to date cooling degree days 0  
Moisture  
Dew Point 30 °F    
Average Humidity 79    
Maximum Humidity 95    
Minimum Humidity 63    
Precipitation  
Precipitation 0.00 in 0.06 in 1.61 in (1960)
Month to date precipitation 0.77  
Year to date precipitation 0.77  
Sea Level Pressure  
Sea Level Pressure 29.82 in    
Wind  
Wind Speed 13 mph (SSW)    
Max Wind Speed 25 mph    
Max Gust Speed 36 mph    
Visibility 9 miles    
Events      
T = Trace of Precipitation, MM = Missing Value Source: NWS Daily Summary

Daily Weather History Graph

Daily Weather History Graph

Search for Another Location

Airport or City:

Trip Planner

Search our weather history database for the weather conditions in past years. The results will help you decide how hot, cold, wet, or windy it might be!

Date:

Astronomy

Jan. 12, 2014 Rise Set
Actual Time 7:11 AM CST 4:45 PM CST
Civil Twilight 6:41 AM CST 5:15 PM CST
Nautical Twilight 6:08 AM CST 5:49 PM CST
Astronomical Twilight 5:35 AM CST 6:22 PM CST
Moon 2:13 PM CST (1/12) 4:10 AM CST (1/12)
Length of Visible Light 10h 34m
Length of Day
9h 33m
Waxing Gibbous, 90% of the Moon is Illuminated
Jan 12
Waxing Gibbous
Jan 15
Full
Jan 23
Last Quarter
Jan 30
New
Feb 6
First Quarter

Hourly Weather History & Observations

Time (CST) Temp. Windchill Dew Point Humidity Pressure Visibility Wind Dir Wind Speed Gust Speed Precip Events Conditions
12:15 AM 30.6 °F 21.8 °F 26.6 °F 85% 29.82 in 10.0 mi WNW 10.4 mph - N/A   Overcast
12:35 AM 30.6 °F 20.2 °F 26.6 °F 85% 29.82 in 10.0 mi West 13.8 mph 17.3 mph N/A   Overcast
12:55 AM 30.6 °F 22.4 °F 26.8 °F 86% 29.84 in 10.0 mi WNW 9.2 mph - N/A   Overcast
1:15 AM 30.6 °F 23.1 °F 26.6 °F 85% 29.83 in 10.0 mi West 8.1 mph - N/A   Overcast
1:35 AM 30.2 °F 21.9 °F 26.6 °F 86% 29.84 in 10.0 mi West 9.2 mph - N/A   Overcast
1:55 AM 30.6 °F 22.4 °F 26.6 °F 85% 29.85 in 10.0 mi West 9.2 mph - N/A   Overcast
2:15 AM 30.6 °F 23.1 °F 27.0 °F 86% 29.87 in 10.0 mi West 8.1 mph - N/A   Overcast
2:35 AM 30.7 °F 22.6 °F 27.3 °F 87% 29.87 in 10.0 mi West 9.2 mph - N/A   Overcast
2:55 AM 30.2 °F 24.3 °F 26.6 °F 86% 29.87 in 10.0 mi WNW 5.8 mph - N/A   Overcast
3:15 AM 30.2 °F 23.4 °F 26.6 °F 86% 29.88 in 10.0 mi WNW 6.9 mph - N/A   Overcast
3:35 AM 30.0 °F 22.4 °F 27.1 °F 89% 29.88 in 10.0 mi West 8.1 mph - N/A   Overcast
3:55 AM 30.0 °F 23.2 °F 27.1 °F 89% 29.88 in 10.0 mi WSW 6.9 mph - N/A   Overcast
4:15 AM 29.8 °F 21.5 °F 27.0 °F 89% 29.89 in 10.0 mi West 9.2 mph - N/A   Overcast
4:35 AM 29.8 °F 22.2 °F 27.3 °F 90% 29.88 in 10.0 mi WSW 8.1 mph - N/A   Overcast
4:55 AM 29.8 °F 24.9 °F 27.3 °F 90% 29.89 in 10.0 mi WSW 4.6 mph - N/A   Overcast
5:15 AM 29.8 °F 22.2 °F 27.5 °F 91% 29.89 in 7.0 mi WSW 8.1 mph - N/A   Overcast
5:35 AM 29.8 °F 22.2 °F 27.5 °F 91% 29.90 in 7.0 mi SW 8.1 mph - N/A   Overcast
5:55 AM 29.5 °F 20.4 °F 27.3 °F 92% 29.90 in 7.0 mi SSW 10.4 mph - N/A   Overcast
6:15 AM 29.3 °F 21.5 °F 27.3 °F 92% 29.91 in 7.0 mi SW 8.1 mph - N/A   Overcast
6:35 AM 29.3 °F 19.1 °F 27.5 °F 93% 29.93 in 7.0 mi SW 12.7 mph - N/A   Overcast
6:55 AM 29.3 °F 20.2 °F 27.5 °F 93% 29.92 in 10.0 mi SW 10.4 mph - N/A   Overcast
7:15 AM 29.1 °F 18.9 °F 27.5 °F 94% 29.93 in 7.0 mi SW 12.7 mph - N/A   Overcast
7:35 AM 29.1 °F 19.4 °F 27.7 °F 94% 29.94 in 7.0 mi SSW 11.5 mph - N/A   Overcast
7:55 AM 28.9 °F 19.2 °F 27.7 °F 95% 29.94 in 7.0 mi SSW 11.5 mph - N/A   Overcast
8:15 AM 28.9 °F 19.2 °F 27.5 °F 94% 29.94 in 5.0 mi South 11.5 mph - N/A   Overcast
8:35 AM 29.1 °F 18.9 °F 27.7 °F 94% 29.94 in 5.0 mi South 12.7 mph 18.4 mph N/A   Overcast
8:55 AM 29.3 °F 18.2 °F 27.7 °F 94% 29.94 in 5.0 mi South 15.0 mph - N/A   Overcast
9:15 AM 29.7 °F 20.7 °F 28.0 °F 94% 29.94 in 5.0 mi South 10.4 mph - N/A   Overcast
9:35 AM 30.0 °F 20.0 °F 28.2 °F 93% 29.94 in 5.0 mi South 12.7 mph - N/A   Overcast
9:55 AM 30.2 °F 20.8 °F 28.2 °F 92% 29.94 in 5.0 mi South 11.5 mph - N/A   Overcast
10:15 AM 31.6 °F 22.6 °F 28.8 °F 89% 29.93 in 7.0 mi South 11.5 mph - N/A   Mostly Cloudy
10:35 AM 32.0 °F 23.0 °F 29.5 °F 90% 29.93 in 7.0 mi South 11.5 mph - N/A   Scattered Clouds
10:55 AM 32.7 °F 22.5 °F 29.8 °F 89% 29.91 in 10.0 mi South 15.0 mph - N/A   Clear
11:15 AM 33.8 °F 25.3 °F 30.2 °F 87% 29.89 in 10.0 mi South 11.5 mph - N/A   Clear
11:35 AM 35.4 °F 25.6 °F 31.3 °F 85% 29.88 in 10.0 mi South 16.1 mph - N/A   Clear
11:55 AM 35.8 °F 25.7 °F 31.5 °F 84% 29.87 in 10.0 mi South 17.3 mph - N/A   Clear
12:15 PM 37.2 °F 28.3 °F 32.0 °F 81% 29.86 in 10.0 mi South 15.0 mph - N/A   Clear
12:35 PM 38.5 °F 29.6 °F 32.4 °F 79% 29.83 in 10.0 mi South 16.1 mph - N/A   Clear
12:55 PM 38.7 °F 29.8 °F 32.2 °F 78% 29.82 in 10.0 mi South 16.1 mph - N/A   Clear
1:15 PM 39.9 °F 32.5 °F 32.5 °F 75% 29.81 in 10.0 mi South 12.7 mph - N/A   Clear
1:35 PM 41.0 °F 32.2 °F 32.4 °F 71% 29.81 in 10.0 mi South 18.4 mph 23.0 mph N/A   Clear
1:55 PM 41.4 °F 32.7 °F 32.0 °F 69% 29.80 in 10.0 mi South 18.4 mph 24.2 mph N/A   Clear
2:15 PM 42.1 °F 34.2 °F 32.2 °F 68% 29.79 in 10.0 mi SSE 16.1 mph 27.6 mph N/A   Clear
2:35 PM 42.3 °F 33.8 °F 32.0 °F 67% 29.78 in 10.0 mi South 18.4 mph 24.2 mph N/A   Clear
2:55 PM 42.4 °F 33.8 °F 32.0 °F 67% 29.77 in 10.0 mi South 19.6 mph 28.8 mph N/A   Clear
3:15 PM 42.4 °F 34.1 °F 32.2 °F 67% 29.77 in 10.0 mi South 18.4 mph 25.3 mph N/A   Clear
3:35 PM 42.3 °F 34.1 °F 32.0 °F 67% 29.75 in 10.0 mi South 17.3 mph 24.2 mph N/A   Clear
3:55 PM 41.9 °F 32.6 °F 32.0 °F 68% 29.75 in 10.0 mi South 21.9 mph 26.5 mph N/A   Clear
4:15 PM 42.1 °F 32.8 °F 32.0 °F 67% 29.74 in 10.0 mi South 21.9 mph 26.5 mph N/A   Clear
4:35 PM 41.5 °F 33.2 °F 32.0 °F 69% 29.74 in 10.0 mi South 17.3 mph 25.3 mph N/A   Clear
4:55 PM 41.5 °F 32.9 °F 32.0 °F 69% 29.74 in 10.0 mi South 18.4 mph 24.2 mph N/A   Clear
5:15 PM 41.7 °F 32.3 °F 32.0 °F 68% 29.73 in 10.0 mi South 21.9 mph 29.9 mph N/A   Clear
5:35 PM 41.9 °F 32.3 °F 32.0 °F 68% 29.72 in 10.0 mi South 23.0 mph 29.9 mph N/A   Clear
5:55 PM 41.9 °F 32.3 °F 32.0 °F 68% 29.72 in 10.0 mi South 23.0 mph 26.5 mph N/A   Clear
6:15 PM 42.1 °F 33.1 °F 32.2 °F 68% 29.73 in 10.0 mi South 20.7 mph 31.1 mph N/A   Clear
6:35 PM 42.4 °F 33.3 °F 32.2 °F 67% 29.73 in 10.0 mi South 21.9 mph 32.2 mph N/A   Clear
6:55 PM 42.1 °F 33.3 °F 32.5 °F 69% 29.73 in 10.0 mi South 19.6 mph 29.9 mph N/A   Clear
7:15 PM 42.8 °F 34.3 °F 32.5 °F 67% 29.73 in 10.0 mi South 19.6 mph 29.9 mph N/A   Clear
7:35 PM 42.4 °F 33.1 °F 32.7 °F 68% 29.73 in 10.0 mi South 23.0 mph 31.1 mph N/A   Clear
7:55 PM 42.4 °F 33.3 °F 32.7 °F 68% 29.73 in 10.0 mi South 21.9 mph 34.5 mph N/A   Clear
8:15 PM 42.6 °F 33.8 °F 32.4 °F 67% 29.72 in 10.0 mi South 20.7 mph 29.9 mph N/A   Clear
8:35 PM 42.8 °F 33.1 °F 32.2 °F 66% 29.72 in 10.0 mi South 25.3 mph 32.2 mph N/A   Clear
8:55 PM 42.3 °F 33.8 °F 32.2 °F 67% 29.73 in 10.0 mi South 18.4 mph 27.6 mph N/A   Clear
9:15 PM 42.3 °F 33.6 °F 32.0 °F 67% 29.72 in 10.0 mi South 19.6 mph 29.9 mph N/A   Clear
9:35 PM 42.3 °F 33.1 °F 32.0 °F 67% 29.72 in 10.0 mi South 21.9 mph 29.9 mph N/A   Clear
9:55 PM 42.4 °F 33.3 °F 32.0 °F 67% 29.71 in 10.0 mi South 21.9 mph 28.8 mph N/A   Clear
10:15 PM 42.4 °F 33.8 °F 32.0 °F 67% 29.72 in 10.0 mi South 19.6 mph 27.6 mph N/A   Clear
10:35 PM 42.8 °F 34.0 °F 31.8 °F 65% 29.70 in 10.0 mi South 20.7 mph 27.6 mph N/A   Clear
10:55 PM 43.0 °F 34.2 °F 31.8 °F 65% 29.70 in 10.0 mi South 20.7 mph 28.8 mph N/A   Clear
11:15 PM 43.5 °F 34.5 °F 31.8 °F 63% 29.69 in 10.0 mi SSW 23.0 mph 32.2 mph N/A   Clear
11:35 PM 43.9 °F 34.5 °F 31.8 °F 63% 29.68 in 10.0 mi SSW 25.3 mph 31.1 mph N/A   Clear
11:55 PM 43.7 °F 35.2 °F 32.0 °F 63% 29.68 in 10.0 mi SSW 20.7 mph 35.7 mph N/A   Clear